User: anonymous   Login
Location: Altleiningen
(49.5078°N, 8.0741°E)
Time: 12:37:16
(UTC+00:00)
Language:

SeaSat 1 - Orbit

View from above orbital plane
View from above orbital plane
View from above satellite
View from above satellite

Ground track
Ground track

The orbit data is extracted from the following two-line orbital elements,

1 10967U 78064A   21138.24354573 -.00000061  00000-0  22255-4 0  9994
2 10967 107.9963  50.5400 0002251 256.6945 103.3948 14.43877589253140
Epoch (UTC): 18 May 2021 05:50:42
Eccentricity: 0.0002251
inclination: 107.9963°
perigee height: 744 km
apogee height: 747 km
right ascension of ascending node: 50.5400°
argument of perigee: 256.6945°
revolutions per day: 14.43877589
mean anomaly at epoch: 103.3948°
orbit number at epoch: 25314

The dashed part of the orbit path shows where the satellite is in the earth's shadow,  

DLR